Regional Weather Roundup
Issued by NWS

Home | Current Version | Previous Version | Graphics & Text | Print | Product List | Glossary On
Versions: 1 2 3 4 5 6 7 8 9 10 11 12 13 14 15 16 17 18 19 20 21 22 23 24 25 26 27 28 29 30 31 32 33 34 35 36 37 38 39 40 41 42 43 44 45 46 47 48 49 50
000
ASUS45 KABQ 241701
RWRNM
NEW MEXICO REGIONAL WEATHER ROUNDUP
NATIONAL WEATHER SERVICE ALBUQUERQUE NM
1100 AM MDT TUE APR 24 2018

NOTE: "FAIR" MEANS FEW OR NO CLOUDS BELOW 12,000 FEET AGL WITH NO
       SIGNIFICANT WEATHER OR OBSTRUCTIONS TO VISION.

      THIS PRODUCT IS RELEASED AS TWO VERSIONS.  ONE VERSION NEAR
      THE TOP OF THE HOUR CONTAINING PRELIMINARY DATA FROM ALBUQUERQUE
      AND OTHER STATIONS.  A FINAL VERSION WITH ADDITIONAL DATA IS
      ISSUED ABOUT 10 MINUTES AFTER THE HOUR.

NMZ501-503-504-510>518-241800-
NORTHWEST PLATEAU/NORTHCENTRAL MOUNTAINS

CITY           SKY/WX    TMP DP  RH WIND       PRES   REMARKS
FARMINGTON     FAIR      66  17  15 VRB3      30.14S
LOS ALAMOS     FAIR      62  14  15 NE6       30.24S
SANTA FE       FAIR      66  18  15 CALM      30.19S
TAOS           FAIR      63  23  21 VRB5      30.24S
ANGEL FIRE     FAIR      61  17  18 SW14G20   30.26F

$$
NMZ402-403-502-505>509-241800-
WESTCENTRAL MOUNTAINS/SOUTHWEST MOUNTAINS

CITY           SKY/WX    TMP DP  RH WIND       PRES   REMARKS
GALLUP         FAIR      69  18  14 SW6       30.21F
GRANTS         FAIR      69  15  12 CALM      30.22F
SILVER CITY    FAIR      76  18  11 W9        30.18S

$$
NMZ407-409-411-412-241800-
SOUTHERN DESERTS

CITY           SKY/WX    TMP DP  RH WIND       PRES   REMARKS
DEMING         FAIR      83  24  11 W3        30.11F
LAS CRUCES     FAIR      80  20  11 S5        30.14S
ALAMOGORDO     FAIR      81  25  12 SW5       30.12R
T OR C         NOT AVBL

$$
NMZ519>523-241800-
CENTRAL VALLEYS/CENTRAL HIGHLANDS

CITY           SKY/WX    TMP DP  RH WIND       PRES   REMARKS
ALBUQUERQUE    PTSUNNY   70  21  15 SW5       30.16S
DOUBLE EAGLE   PTSUNNY   70  18  13 CALM      30.19R
MORIARTY ARPT  FAIR      74  19  12 S3        30.20S
CLINES CORNERS FAIR      65  26  23 E17       30.25R
BELEN          FAIR      73  15  11 CALM      30.16S
SOCORRO        FAIR      76  19  11 SE10      30.15S

$$
NMZ524>526-539-540-241800-
SOUTHCENTRAL MOUNTAINS

CITY           SKY/WX    TMP DP  RH WIND       PRES   REMARKS
RUIDOSO        NOT AVBL

$$
NMZ527>531-241800-
NORTHEAST HIGHLANDS/NORTHEAST PLAINS

CITY           SKY/WX    TMP DP  RH WIND       PRES   REMARKS
LAS VEGAS      FAIR      58  35  42 E16       30.24R
RATON          FAIR      53  35  50 N23G29    30.25S
CLAYTON        CLOUDY    47  37  68 N28G37    30.27R

$$
NMZ532>537-241800-
EASTCENTRAL PLAINS

CITY           SKY/WX    TMP DP  RH WIND       PRES   REMARKS
SANTA ROSA     FAIR      65  37  36 NE15G23   30.18R
TUCUMCARI      FAIR      64  42  44 NE23G35   30.18R
CANNON AFB     NOT AVBL
CLOVIS AIRPORT FAIR      65  42  43 N24G33    30.16R

$$
NMZ028-029-538-241800-
SOUTHEAST PLAINS

CITY           SKY/WX    TMP DP  RH WIND       PRES   REMARKS
ROSWELL        FAIR      82  30  15 S7        30.05R
ARTESIA        FAIR      79  37  22 VRB5      30.06S
CARLSBAD       FAIR      83  38  20 VRB5      30.02F
HOBBS          SUNNY     84  37  18 SW12G17   30.06F


$$




USA.gov is the U.S. government's official web portal to all federal, state and local government web resources and services.